Regional Weather Roundup
Issued by NWS Columbia, SC

Home | Current Version | Previous Version | Text Only | Print | Product List | Glossary On
Versions: 1 2 3 4 5 6 7 8 9 10 11 12 13 14 15 16 17 18 19 20 21 22 23 24 25 26 27
000
ASUS42 KCAE 241010
RWRCAE
REGIONAL WEATHER ROUNDUP
NATIONAL WEATHER SERVICE COLUMBIA SC
600 AM EDT FRI MAR 24 2017

NOTE: "FAIR" INDICATES FEW OR NO CLOUDS BELOW 12,000 FEET WITH NO
SIGNIFICANT WEATHER AND/OR OBSTRUCTIONS TO VISIBILITY.

NOT ALL STATIONS ARE QUALITY CONTROLLED BY THE NATIONAL
WEATHER SERVICE. USE DATA WITH CAUTION...ESPECIALLY
DEWPOINT OBSERVATIONS.

SCZ001>056-GAZ040-063>065-077-241100-
...UPSTATE SOUTH CAROLINA...

CITY           SKY/WX    TMP DP  RH WIND       PRES   REMARKS
ANDERSON       CLOUDY    51  34  52 E3        30.47R
LIBERTY        CLOUDY    50  34  53 CALM      30.45S
SPARTANBURG    CLOUDY    46  32  57 CALM      30.48R
CLEMSON        CLOUDY    54  34  46 E3        30.48R
GREENVILLE     CLOUDY    51  32  48 CALM      30.48R
GREENWOOD      CLOUDY    47  34  60 CALM      30.49R
GREER          CLOUDY    49  31  49 CALM      30.47R
ROCK HILL      PTCLDY    40  33  76 CALM      30.49R
CHESTER        PTSUNNY   41  32  70 CALM      30.49S
LAURENS        CLOUDY    46  36  66 CALM      30.48R


...CENTRAL SOUTH CAROLINA...

CITY           SKY/WX    TMP DP  RH WIND       PRES   REMARKS
COLUMBIA APT   CLOUDY    49  36  61 E3        30.48R
COLUMBIA OWENS CLOUDY    49  35  58 NE3       30.49S
MCENTIRE ANGB  CLOUDY    47  38  72 E5        30.48R
ORANGEBURG     PTCLDY    46  38  73 E5        30.47S
SUMTER SHAW    CLOUDY    43  37  80 NE5       30.47R
NEWBERRY       CLOUDY    45  34  65 CALM      30.50R
AIKEN          CLOUDY    46  36  66 N3        30.49R
BARNWELL       PTSUNNY   48  41  76 E3        30.46S
MANNING        PTSUNNY   43  36  75 NE3       30.48S
CAMDEN         CLOUDY    43  36  75 E3        30.50R
LANCASTER      PTSUNNY   41  36  81 NE3       30.50S
WINNSBORO      CLOUDY    46  36  66 E6        30.48R


...EASTERN AND COASTAL SOUTH CAROLINA...

CITY           SKY/WX    TMP DP  RH WIND       PRES   REMARKS
MYRTLE BEACH   CLEAR     43  39  87 N9        30.50S
N MYRTLE BCH   PTCLDY    42  40  92 NE8       30.49S
CONWAY         FAIR      37  36  93 CALM      30.50R
MARION         FAIR      37  34  87 NE6       30.52R WCI  33
HARTSVILLE     CLOUDY    41  32  70 NE6       30.50R
FLORENCE       CLEAR     38  34  85 NE5       30.50S WCI  34
DARLINGTON     CLOUDY    42  36  79 NE5       30.51S
CHARLESTON APT PTCLDY    50  46  86 NE9       30.45S
MOUNT PLEASANT LGT RAIN  46  45  93 CALM      30.46S
WALTERBORO     SUNNY     46  43  87 NE3       30.47S
BEAUFORT       CLEAR     48  47  96 N6        30.45R


...EASTERN GEORGIA...

CITY           SKY/WX    TMP DP  RH WIND       PRES   REMARKS
AUGUSTA BUSH F CLEAR     48  39  71 CALM      30.46S
AUGUSTA DANIEL MOCLDY    51  33  50 E3        30.46S
THOMSON        CLEAR     49  37  63 SE3       30.50S
WASHINGTON     FAIR      52  43  71 CALM      30.45S
CLAXTON        FAIR     N/A N/A N/A NE3       30.44S
SYLVANIA       SUNNY    N/A N/A N/A NE3       30.46R
STATESBORO     PTCLDY    47  44  89 CALM      30.45R
SAVANNAH       CLEAR     49  44  83 NE5       30.44R


...SOUTHERN NORTH CAROLINA...

CITY           SKY/WX    TMP DP  RH WIND       PRES   REMARKS
CHARLOTTE      CLEAR     42  32  67 S5        30.49S
MONROE         CLEAR     38  31  76 CALM      30.48S
WADESBORO      PTSUNNY   34  31  88 CALM      30.52R
ROCKINGHAM     CLOUDY    38  34  85 CALM      30.51S
RUTHERFORDTON  CLOUDY    43  32  66 CALM      30.49R
ASHEVILLE      CLOUDY    47  26  44 SE5       30.45R

$$




USA.gov is the U.S. government's official web portal to all federal, state and local government web resources and services.